Theta_e
288 288 288 287 287 286 286 286 286 286 286 286 285 285 284 284 284 284 283 283 283 282 282 282 281 281 281 281 280 280 280 280 280 280 280 279 279 279 279 279 278 278 279 279 280 279 279 278 279 279 279 278 278 278 278 279 279 279 279 279 278 279 278 277 275 275 278 280 280 280 281 282 280 282 281 282 282 283 284 284 284 284 285 285 286
288 287 287 287 286 286 286 286 285 285 285 284 284 284 283 283 283 283 282 282 282 281 281 281 280 280 280 279 280 279 279 279 279 278 278 278 277 279 279 277 277 277 278 278 278 279 278 277 277 278 278 277 277 277 277 277 277 277 277 277 277 277 278 276 275 274 274 277 277 279 279 281 278 281 280 280 280 281 281 282 283 283 283 284 284
288 287 287 286 286 286 285 285 285 284 284 283 282 282 282 282 282 281 281 281 281 280 280 280 279 279 279 279 279 278 278 277 278 277 277 277 276 277 278 277 277 277 277 277 277 277 277 277 277 277 278 276 276 276 277 277 277 276 276 277 276 276 277 277 275 274 273 274 276 276 277 278 277 277 279 280 280 280 280 280 281 282 283 283 283
287 287 286 286 285 285 284 284 284 283 282 282 281 281 281 281 281 280 280 280 279 279 279 278 278 278 278 278 278 277 277 277 277 277 276 276 276 276 276 276 277 277 276 276 277 276 276 276 276 276 276 275 275 276 276 276 276 275 275 276 276 275 276 276 276 274 274 273 274 275 276 276 277 278 279 279 279 279 279 280 280 280 281 282 283
287 286 286 285 284 284 283 283 283 282 282 281 281 280 280 280 279 279 279 279 279 278 278 278 277 278 277 277 276 276 276 276 276 276 276 276 275 275 276 276 276 277 276 276 277 276 276 276 276 276 276 275 275 275 275 275 275 275 274 275 275 275 275 275 275 275 274 273 273 275 276 275 276 276 277 276 276 277 278 278 278 279 279 281 282
286 286 285 284 284 283 282 282 282 282 282 281 280 280 279 279 278 278 278 278 278 278 277 277 277 276 276 276 276 275 276 275 275 275 275 275 275 276 276 276 276 276 276 276 276 276 276 276 276 275 275 274 274 274 275 274 274 274 274 274 274 274 273 274 274 274 273 272 272 272 273 273 273 274 275 276 275 274 275 276 278 278 278 277 278
286 285 284 283 283 282 282 282 282 282 281 280 280 279 279 278 278 277 278 277 277 277 276 276 276 275 275 275 275 275 274 275 275 275 274 275 275 276 276 276 276 276 276 276 276 276 276 276 276 275 275 275 274 274 274 273 273 273 273 273 273 273 273 273 273 272 272 271 271 272 272 273 273 272 274 275 275 274 273 273 273 276 276 276 275
285 284 283 282 282 282 283 283 283 282 281 280 279 278 278 277 277 277 277 276 276 276 275 275 275 275 275 274 275 274 274 274 274 274 274 275 276 276 275 275 275 275 276 276 276 276 276 276 276 275 275 275 275 274 273 273 273 273 273 273 273 272 272 272 272 271 271 271 270 270 271 271 272 273 274 274 273 273 274 273 272 273 274 275 276
284 283 283 283 283 283 283 283 282 281 280 279 278 277 277 277 276 276 276 276 276 275 275 274 274 274 274 274 274 274 273 273 274 273 274 274 275 275 275 275 275 275 275 275 276 276 276 276 276 276 276 276 276 275 275 275 273 272 272 273 272 272 271 271 271 270 270 270 270 271 271 271 271 271 271 271 271 271 273 274 272 273 274 274 275
284 283 283 283 283 283 283 282 281 280 279 278 277 277 276 276 275 275 275 275 274 274 274 274 273 274 273 274 274 273 273 274 273 272 274 274 275 275 275 275 275 275 274 274 274 275 275 275 276 276 275 275 275 275 275 275 276 274 273 273 272 271 271 270 270 270 269 269 269 269 269 269 270 271 271 272 273 273 273 273 272 273 273 273 274
284 283 283 283 284 283 282 281 280 279 278 278 277 276 276 275 274 274 274 273 273 273 273 273 273 273 273 273 273 273 273 273 273 273 275 276 275 275 274 274 275 274 274 274 273 274 275 275 274 274 274 274 274 274 275 275 276 276 276 276 275 273 271 270 270 270 270 269 270 270 270 270 271 272 272 273 273 273 273 273 273 273 272 271 270
284 284 284 284 284 282 281 280 279 279 278 277 276 275 275 274 273 273 273 272 272 272 272 273 273 273 272 272 272 272 273 273 273 274 274 275 276 275 275 274 274 274 274 274 274 274 273 273 273 273 273 273 273 273 273 275 275 275 276 276 276 276 276 273 271 271 271 270 270 270 271 270 271 272 273 273 273 273 274 273 273 272 272 271 272
284 284 284 284 283 282 281 280 279 278 277 276 275 274 273 272 272 272 271 272 272 271 272 272 271 272 271 271 271 272 272 273 273 274 274 275 276 276 274 274 274 274 274 274 274 273 273 272 272 272 273 274 273 273 272 272 274 275 276 275 275 276 276 277 277 275 274 272 271 271 272 272 272 272 274 273 275 273 273 273 273 273 273 272 273
284 284 284 284 283 282 281 279 279 277 276 275 274 272 272 271 272 272 272 271 271 271 271 271 271 271 271 271 271 271 271 272 273 273 274 275 275 276 274 274 274 274 274 273 273 272 272 272 271 271 272 272 273 273 272 272 273 273 273 273 273 274 276 277 278 278 277 275 273 272 274 274 273 274 275 276 274 273 273 273 274 273 273 273 274
284 284 284 284 283 281 281 279 278 277 275 274 273 272 271 271 272 271 271 271 271 270 270 269 270 270 269 269 269 269 270 272 272 273 274 274 275 275 274 274 273 273 273 272 272 272 272 272 272 271 272 272 273 273 273 273 273 273 273 273 273 274 274 274 274 274 274 274 274 275 275 276 276 276 276 277 276 276 276 275 275 275 275 276 276
284 284 284 283 282 281 280 279 278 276 274 273 272 272 271 271 270 271 271 271 271 271 270 270 269 268 268 268 267 268 269 272 272 273 273 274 275 274 273 272 272 272 272 272 272 272 272 272 272 272 272 272 274 276 276 275 274 274 274 274 274 274 275 277 278 278 277 276 276 276 276 277 279 277 278 278 277 277 277 277 276 275 273 272 272
284 284 283 283 282 281 280 279 277 275 274 272 272 272 271 271 270 271 270 271 270 269 269 268 268 268 267 266 266 267 267 270 271 272 273 274 274 272 272 271 271 271 271 272 272 272 272 273 272 272 273 273 275 277 277 277 275 275 275 275 275 275 275 277 279 281 281 281 281 281 281 281 282 282 282 282 280 279 277 275 274 274 273 271 272
285 284 283 283 282 281 280 279 277 275 274 272 272 272 272 271 270 270 269 270 269 269 268 267 267 267 266 265 266 265 266 268 270 271 272 273 273 271 271 271 271 271 271 272 272 272 273 274 274 274 274 274 276 278 279 278 275 275 274 274 274 274 275 276 277 278 280 280 280 280 281 281 281 281 281 281 281 280 276 273 274 274 272 272 271
284 284 283 283 282 280 279 278 277 275 274 273 272 272 271 271 270 269 269 270 269 268 267 267 266 266 266 265 266 265 265 266 269 271 272 273 272 272 271 271 270 270 271 271 272 272 273 274 275 275 275 276 278 278 278 277 275 275 274 273 272 272 273 275 274 274 275 275 275 276 276 276 276 275 276 279 280 279 277 275 275 274 272 272 272
285 285 284 283 281 280 279 278 277 275 274 273 272 272 271 270 269 268 268 268 268 268 266 266 265 265 265 264 263 264 264 265 266 270 271 272 273 272 272 271 270 270 271 271 272 273 274 274 275 277 278 278 277 278 278 278 275 274 274 272 271 271 273 274 275 274 273 273 272 273 273 273 274 274 274 275 275 276 276 276 276 275 273 272 272
285 284 283 282 281 279 279 277 276 275 274 273 271 270 270 269 268 267 266 267 267 266 265 265 264 264 265 265 264 264 264 264 265 270 271 272 273 273 272 271 271 271 271 272 272 272 273 274 275 276 276 276 276 277 277 277 277 274 273 272 272 273 276 273 272 273 271 270 270 271 271 272 272 273 274 274 275 275 276 276 276 275 274 272 271
284 283 282 281 280 278 277 276 275 274 272 271 269 268 269 268 267 266 266 267 265 264 263 263 264 264 265 265 265 265 266 267 266 268 271 272 273 274 272 272 273 272 272 272 273 273 273 274 273 274 275 276 276 277 277 276 276 273 272 275 276 276 272 271 270 269 269 269 269 269 269 269 270 270 271 272 273 274 274 274 275 274 274 274 273
283 282 281 280 278 276 275 273 272 271 270 269 268 267 266 265 265 265 266 265 263 262 262 263 263 264 264 266 266 265 265 266 269 268 271 272 273 274 275 274 275 274 273 272 272 273 274 273 273 274 275 276 276 276 275 275 273 272 274 275 274 274 271 268 268 267 267 267 267 266 267 268 269 269 270 271 272 273 273 273 274 274 274 274 274
282 281 279 278 276 274 272 271 270 269 268 268 267 266 265 264 264 264 264 264 264 263 264 264 264 264 264 265 266 267 267 267 269 271 270 272 273 274 275 275 276 274 274 273 274 274 273 272 273 275 275 275 275 274 274 273 271 273 273 273 272 270 267 266 265 265 265 265 265 265 265 267 267 268 269 270 271 272 272 273 273 274 274 274 274
279 278 277 276 274 272 270 269 268 267 267 267 266 266 264 263 263 264 263 264 266 266 266 266 265 266 266 266 267 267 267 268 268 270 272 272 274 274 275 275 275 276 274 274 274 273 274 275 275 275 274 274 273 273 271 270 271 272 272 271 269 266 265 264 264 264 263 263 264 264 265 266 267 268 269 270 270 271 271 272 273 274 274 275 275
276 276 276 275 273 271 268 267 266 265 265 266 266 267 265 264 265 265 264 265 265 266 267 267 266 266 266 266 267 267 268 268 268 269 271 271 272 273 274 274 274 275 275 274 275 276 275 275 274 273 272 271 269 268 267 267 270 271 270 268 265 265 264 264 264 263 263 263 263 264 265 266 266 267 268 269 268 269 270 270 271 272 273 273 273
275 274 274 274 271 269 267 267 266 264 264 265 266 267 267 265 266 266 266 266 266 266 267 266 266 266 265 266 267 267 267 268 268 269 269 270 270 271 272 272 274 274 274 273 273 272 271 271 270 272 271 271 270 270 269 269 267 266 265 265 264 264 264 264 264 263 263 263 264 264 265 265 266 266 266 267 267 268 270 270 270 271 272 272 271
274 274 273 272 270 267 267 266 265 264 263 264 265 266 266 266 266 267 267 267 267 266 266 266 266 266 266 266 266 266 267 267 268 268 269 270 270 271 272 272 272 272 272 272 271 269 268 269 269 266 266 265 265 264 265 264 265 265 264 264 264 265 265 266 266 265 264 265 264 265 265 265 264 265 266 266 267 268 269 269 269 269 270 270 269
273 273 271 270 269 267 267 266 266 266 264 264 265 266 266 266 266 267 268 269 269 268 267 267 267 267 267 267 266 266 267 267 268 271 270 272 271 271 271 272 272 272 273 273 268 268 267 266 265 265 264 264 263 263 263 263 263 264 262 262 263 263 263 263 263 263 264 264 263 263 263 264 264 265 266 266 266 267 268 268 268 268 268 269 268
271 271 270 269 268 266 266 266 266 266 265 264 263 264 266 269 268 267 266 268 270 271 271 268 268 267 266 267 268 267 267 268 271 273 273 274 275 275 274 274 275 274 275 274 269 266 265 264 264 263 263 262 262 263 263 262 262 262 263 264 263 262 263 263 263 263 264 264 264 263 263 264 264 265 265 265 265 266 267 268 266 267 266 266 266
271 271 270 269 269 267 266 266 266 266 266 265 264 264 264 266 270 270 270 269 269 271 272 272 271 270 267 266 268 271 271 272 273 273 274 274 275 275 274 274 275 275 273 270 267 266 264 263 263 263 263 262 262 262 262 262 262 261 262 262 262 263 263 262 263 263 263 263 263 264 264 265 264 265 264 265 265 265 266 266 266 266 266 266 265
272 272 271 269 268 267 267 266 266 265 266 266 265 264 265 265 266 270 271 271 271 271 272 272 273 272 272 271 268 268 271 273 274 274 275 275 275 274 274 274 274 272 272 271 265 264 264 263 262 262 262 261 262 262 262 261 261 261 261 261 261 262 262 262 263 263 263 263 263 264 264 265 264 265 265 265 265 264 264 265 265 265 265 265 266
272 272 271 269 268 267 266 266 266 265 265 264 264 264 265 266 266 266 269 272 273 273 273 273 273 273 274 274 275 273 273 273 274 274 274 274 274 274 273 274 272 272 271 267 263 262 262 262 261 261 261 261 261 261 261 260 261 261 260 260 260 261 262 262 263 262 263 264 264 264 265 265 265 265 265 265 264 263 264 264 264 264 265 264 265
270 271 271 269 268 267 266 266 266 265 265 265 264 264 264 266 266 268 266 266 267 270 272 273 274 274 274 274 274 274 274 274 274 274 274 273 273 273 273 271 271 270 268 264 263 261 262 261 261 261 260 261 261 261 260 260 260 260 260 260 261 261 261 262 262 262 263 264 264 265 265 265 265 264 264 264 264 264 264 264 264 264 264 264 264
268 268 267 267 268 267 266 266 266 265 265 265 264 264 264 264 265 265 266 266 265 265 265 267 270 273 271 271 272 273 273 273 273 272 272 272 272 273 272 267 266 266 265 262 261 261 261 261 260 260 260 260 260 260 259 259 259 260 260 260 260 260 261 261 261 262 262 264 264 264 265 265 265 265 264 264 264 263 263 263 264 264 264 264 264
267 268 268 267 267 268 267 266 266 266 265 265 264 264 264 263 263 263 263 264 264 265 265 265 265 269 271 270 270 271 271 271 271 271 272 272 272 272 267 265 265 264 263 262 261 261 261 260 260 260 260 260 260 259 260 259 259 259 259 259 259 259 260 260 261 262 263 263 264 264 265 265 265 265 265 264 264 263 264 264 264 264 265 264 265
266 267 268 267 266 267 267 266 266 266 266 264 263 263 263 263 263 263 263 262 262 262 263 263 263 262 264 264 266 268 270 270 270 271 271 271 272 269 266 265 264 263 262 261 261 260 260 260 260 259 259 259 259 259 259 259 259 258 260 260 259 259 259 260 261 262 262 263 263 264 264 264 265 265 264 263 263 264 264 264 264 265 265 265 265
265 266 266 265 265 265 264 263 264 264 263 263 263 262 262 262 262 262 262 261 261 261 261 262 262 262 262 263 265 263 263 267 268 268 268 269 268 265 264 264 262 261 261 261 260 260 259 259 259 258 258 258 258 259 258 258 258 258 258 258 259 259 261 261 262 261 262 263 263 264 264 264 264 264 264 263 263 263 263 264 264 264 264 265 265
263 265 266 266 266 265 264 263 262 262 262 262 262 262 261 261 261 261 261 261 261 261 261 261 261 261 261 263 261 262 261 260 260 261 262 264 265 264 263 262 261 260 260 260 259 259 258 258 258 258 258 258 258 258 258 258 258 258 258 258 258 258 259 259 259 260 261 262 263 263 264 264 264 264 264 263 263 263 263 264 264 264 263 263 264
264 264 264 265 265 264 263 262 262 261 261 261 261 261 260 260 260 260 260 260 260 260 260 260 260 260 262 262 260 260 259 259 260 261 262 263 263 263 261 260 260 259 259 259 259 258 258 258 258 257 257 257 257 257 257 257 257 257 257 257 257 257 258 259 259 260 260 261 262 263 263 264 264 264 264 264 263 264 263 263 263 264 264 264 264
264 264 263 264 264 264 262 262 261 261 261 261 261 260 260 260 260 260 260 260 260 260 260 260 260 261 261 261 264 263 259 259 260 261 261 262 262 261 260 259 259 259 259 258 258 258 258 258 257 257 257 257 257 257 257 257 257 257 257 257 257 258 258 258 259 259 260 261 262 262 263 263 264 263 263 263 265 264 263 264 264 264 264 264 264
263 262 262 263 263 263 261 260 260 260 260 260 260 260 259 259 260 259 259 259 259 259 259 259 259 260 261 263 264 265 263 261 261 261 261 262 262 261 261 260 260 259 259 258 258 258 258 257 257 257 256 256 256 256 256 256 256 256 256 256 256 257 257 257 258 258 259 260 261 262 262 263 263 264 264 265 263 263 263 263 263 263 264 264 264
262 262 262 262 262 262 261 261 260 260 260 259 259 259 259 259 259 259 258 258 258 258 258 258 258 259 259 262 262 264 263 262 261 261 261 261 261 261 260 260 260 259 258 258 258 257 257 256 256 256 256 256 256 256 256 256 255 255 256 255 256 256 256 257 257 258 259 259 260 261 262 262 262 263 263 263 263 262 262 262 263 263 263 263 264
260 260 260 260 260 261 261 261 260 260 260 259 259 259 258 258 258 258 257 257 257 257 257 257 258 258 258 259 260 260 259 259 260 260 260 260 260 260 260 259 259 258 257 257 257 256 256 255 255 255 255 255 255 254 255 255 255 254 254 255 255 256 256 256 257 257 258 258 259 260 261 261 262 263 263 263 262 262 262 262 262 262 262 263 263
260 260 259 259 259 259 259 259 259 259 258 258 257 257 257 257 257 257 257 256 256 256 257 257 257 257 257 257 257 257 257 257 258 258 258 258 258 258 258 258 258 257 256 256 256 255 254 254 254 254 254 254 254 254 254 255 255 255 255 255 254 255 255 255 256 257 257 257 258 259 260 260 261 262 263 262 262 262 261 261 261 262 262 262 262
259 259 258 259 258 258 258 258 257 257 257 257 257 257 257 257 256 256 256 256 256 256 256 256 256 256 256 256 256 256 256 256 256 256 256 256 257 257 257 257 256 256 256 255 255 254 254 254 254 254 254 254 254 254 254 254 254 254 254 254 255 255 255 256 256 256 257 257 258 259 259 259 260 262 262 262 262 261 261 261 261 261 261 261 262
258 258 258 257 257 257 257 257 256 256 256 256 256 255 256 256 256 256 255 255 255 255 255 255 255 255 256 256 255 255 256 255 255 255 255 255 255 255 255 255 255 255 254 254 252 254 253 253 253 253 253 253 253 253 253 253 254 254 255 255 255 255 255 256 256 256 257 257 257 257 257 258 259 261 262 262 261 260 260 260 260 260 260 261 261
257 257 257 257 256 256 256 256 256 255 255 255 255 255 255 255 255 254 254 255 254 254 254 254 255 255 255 255 256 255 255 255 256 255 256 255 255 255 254 253 253 254 253 253 253 253 253 253 253 253 253 253 253 253 253 253 253 254 254 255 255 255 256 256 255 255 256 256 256 257 257 258 259 260 262 262 260 260 259 259 260 260 260 260 261
256 256 256 256 255 256 256 255 255 255 255 255 255 254 254 254 254 254 254 254 254 254 254 254 254 254 254 255 255 255 255 255 255 255 255 255 254 254 254 253 252 253 253 252 252 252 252 252 253 253 253 253 253 253 252 252 253 253 253 254 255 256 257 257 256 256 256 256 256 257 258 259 260 261 262 261 260 259 259 259 259 259 260 260 260
256 255 255 255 255 255 256 255 255 255 255 254 254 254 254 254 254 254 254 254 254 254 254 254 254 254 254 254 254 254 254 254 254 254 254 254 254 254 254 253 252 252 252 252 252 252 252 252 252 252 252 253 253 252 252 252 252 253 253 253 255 256 256 256 257 256 256 256 257 258 260 260 261 262 261 260 259 258 258 258 259 260 259 258 259
254 255 255 255 255 255 255 254 254 254 254 254 254 254 253 253 254 253 253 253 253 253 253 253 253 253 254 254 254 254 254 254 254 254 254 254 254 254 254 253 253 252 252 252 252 252 252 252 252 253 253 252 252 252 252 252 252 252 254 255 255 256 256 257 256 257 258 259 260 260 260 261 261 261 260 259 259 258 259 260 259 258 258 258 259
Wind_Speed
9 8 7 7 8 8 8 7 7 6 7 7 7 6 6 5 5 5 4 4 3 3 3 2 2 2 1 2 2 2 2 2 2 3 2 2 3 2 3 3 4 3 3 4 3 4 4 5 5 5 5 6 5 6 6 6 6 6 6 7 7 7 7 9 12 15 15 9 8 9 8 10 10 8 11 11 10 11 12 11 13 12 11 11 11
8 9 7 8 8 8 8 7 6 6 7 6 7 6 5 5 5 4 5 4 3 3 2 2 1 1 0 0 1 1 1 2 2 2 2 3 3 2 2 4 4 4 4 4 4 3 4 5 5 5 5 5 6 6 6 6 6 6 6 6 7 8 7 8 10 11 17 14 10 9 8 8 10 8 10 14 12 11 13 12 11 11 11 11 11
8 8 8 8 8 7 7 7 7 7 7 7 7 6 6 5 4 4 4 4 3 2 2 1 1 1 1 0 0 1 1 2 2 2 2 3 3 3 3 3 4 4 4 4 5 5 5 5 5 5 4 6 6 6 6 6 6 7 8 7 8 8 8 8 9 12 14 16 12 12 9 10 11 12 11 10 11 11 12 12 11 10 9 11 11
9 9 8 8 8 8 7 7 8 7 7 6 7 6 6 5 4 4 4 3 3 3 2 1 1 1 1 1 1 1 1 2 2 2 2 2 3 3 3 4 4 4 4 5 5 5 5 5 5 5 6 6 6 6 6 6 7 7 8 7 8 8 8 8 9 10 12 15 15 12 12 11 12 12 10 10 12 12 11 13 12 13 13 11 11
10 9 9 10 9 8 8 7 7 7 7 6 7 6 5 5 4 4 4 4 3 3 3 3 2 2 1 1 1 1 1 2 2 2 2 2 3 3 4 3 4 4 4 4 5 5 5 5 6 6 6 7 7 6 6 8 7 7 7 8 7 8 7 8 9 10 12 14 16 13 12 12 11 12 11 13 12 11 12 12 12 12 13 12 9
10 10 9 10 9 9 8 7 7 8 7 7 7 6 5 5 5 4 4 4 4 3 3 2 2 1 1 1 1 1 1 2 2 2 2 2 3 3 3 4 4 4 5 5 5 5 5 6 6 6 6 7 7 7 7 8 8 8 9 8 8 8 9 9 9 10 11 13 14 16 12 12 12 10 10 11 13 13 12 11 11 10 11 12 11
11 10 10 10 9 9 8 8 8 8 7 7 6 5 5 5 5 5 4 4 4 4 3 3 2 2 1 1 1 1 2 2 2 2 2 3 3 3 3 4 5 5 5 5 5 5 6 6 6 6 6 7 7 7 8 9 7 9 8 9 8 9 9 9 9 10 11 12 13 12 14 12 11 14 11 11 13 11 13 12 10 8 9 10 12
11 10 10 9 8 9 9 8 8 7 7 7 6 6 5 5 5 4 4 4 4 4 4 4 3 2 1 1 1 1 2 2 2 2 2 2 3 3 4 5 5 5 6 6 6 6 6 6 6 6 6 6 6 7 8 8 8 9 8 8 8 9 9 9 9 10 10 11 12 13 12 13 12 10 11 12 11 9 8 10 13 13 12 10 10
10 10 9 9 9 9 8 7 7 7 7 7 7 6 6 5 5 4 4 4 3 4 3 3 3 2 2 2 2 2 2 2 1 1 2 3 3 4 4 5 6 6 6 6 6 6 6 6 6 6 6 9 13 12 11 11 9 9 9 9 9 9 10 9 9 9 10 10 12 11 12 12 11 12 12 11 11 12 11 11 12 11 11 11 10
12 11 11 10 9 8 8 7 7 7 7 7 7 6 6 5 5 5 4 4 4 4 4 3 3 3 2 3 2 2 2 2 2 1 3 3 4 4 5 5 6 6 7 7 7 7 6 6 6 9 11 12 13 13 13 12 13 11 10 10 9 9 9 9 10 9 10 11 11 12 12 12 12 13 14 14 13 13 12 11 12 11 11 11 10
12 12 11 11 10 10 9 8 8 8 7 7 5 7 6 5 4 3 3 3 5 4 4 4 4 3 3 2 3 3 3 2 3 4 5 6 5 5 5 5 6 6 7 7 7 7 6 6 6 8 9 9 8 10 12 13 14 15 15 15 13 11 9 10 11 11 11 11 11 12 13 15 16 14 14 15 14 13 12 11 12 11 11 13 15
13 13 12 12 11 11 9 9 8 8 6 5 5 5 4 4 4 4 4 4 4 3 4 5 4 3 3 3 3 4 3 4 5 5 6 6 6 5 5 6 5 6 7 7 7 7 7 7 6 6 6 7 8 9 11 13 14 14 15 15 15 16 15 12 12 11 10 11 12 12 12 16 16 14 14 14 14 13 13 14 14 13 14 14 12
14 13 13 12 10 10 10 7 7 6 5 5 5 5 5 4 4 5 5 4 4 4 5 5 4 4 4 4 4 4 4 5 6 6 7 7 7 7 5 6 6 6 7 7 8 7 6 6 6 6 6 10 9 8 9 9 11 15 16 16 16 16 17 19 19 15 13 13 13 16 15 16 18 15 13 14 14 16 14 14 14 15 14 12 13
12 11 11 11 9 9 9 8 7 6 5 5 5 5 5 5 5 4 4 4 4 4 3 4 4 4 4 4 4 4 5 5 6 7 7 8 8 7 6 6 7 7 8 8 7 7 7 7 7 7 7 8 8 9 9 10 11 11 12 12 13 16 19 22 23 25 22 15 15 16 16 16 17 16 16 16 16 14 13 13 13 13 13 15 16
13 14 14 11 9 8 9 6 7 6 6 6 6 6 6 5 6 5 5 5 5 5 4 4 4 3 3 3 4 4 4 6 7 8 8 8 8 7 6 6 6 6 7 8 8 8 8 7 8 9 8 8 8 11 12 12 11 10 11 12 12 14 15 14 15 14 14 14 16 17 18 16 18 19 16 16 16 15 14 15 14 14 15 16 14
15 15 13 11 9 8 8 7 8 6 7 6 6 7 6 6 6 5 5 4 4 3 3 3 4 4 4 3 3 5 5 7 8 8 8 8 8 5 5 6 6 6 7 7 8 8 8 8 8 9 10 10 13 17 15 13 12 13 14 13 12 11 12 15 21 20 17 16 16 17 15 18 22 18 19 16 14 14 14 14 13 12 12 10 11
15 14 11 12 13 11 9 11 11 10 7 7 7 7 7 7 6 5 5 5 5 4 4 3 3 4 4 4 4 5 4 6 7 7 8 8 6 5 5 5 6 7 7 8 8 8 8 9 9 9 11 11 15 18 18 19 12 13 12 13 13 12 11 10 18 24 26 27 29 29 30 30 28 29 28 30 21 17 13 13 12 10 12 14 12
14 14 14 14 13 14 13 14 13 12 11 12 11 7 6 5 6 5 6 5 5 4 4 3 3 3 4 5 5 4 4 5 7 8 8 9 7 5 5 6 7 7 7 7 7 8 9 14 13 12 12 12 16 19 20 17 12 12 14 15 15 13 11 11 9 10 18 23 25 27 28 27 26 27 26 26 27 20 13 14 13 12 14 12 14
16 15 15 14 15 15 13 13 14 13 14 13 11 10 8 7 6 5 4 4 3 4 3 3 3 3 4 5 7 6 5 6 8 9 9 9 7 5 5 6 6 7 6 7 6 7 8 9 14 13 12 13 18 19 21 18 12 12 13 13 14 14 12 13 13 14 13 12 10 11 12 15 16 16 17 27 27 23 15 14 12 11 12 12 12
16 16 14 14 14 13 12 13 13 14 14 12 9 8 5 5 6 6 4 3 4 3 4 3 4 4 3 4 5 6 5 5 5 9 9 9 10 6 5 6 7 7 6 7 7 7 7 8 9 12 14 16 19 21 20 22 15 13 12 12 13 14 12 13 13 13 12 10 11 12 15 14 15 14 13 13 13 13 14 13 11 10 11 11 10
12 11 12 11 12 13 12 13 14 12 11 11 8 8 5 6 6 5 5 4 4 3 4 3 3 4 4 5 4 5 5 5 6 10 10 10 11 10 6 7 7 7 7 7 7 7 7 8 7 9 14 19 19 20 22 22 21 14 12 11 12 15 18 12 12 16 11 12 12 12 11 10 10 10 10 10 10 9 9 12 11 12 11 11 11
11 11 11 11 12 12 12 10 9 9 9 9 10 8 4 5 5 5 4 4 5 4 3 3 4 4 4 4 4 5 6 10 5 8 11 11 12 12 8 7 7 7 7 7 7 7 8 7 5 10 17 18 20 21 22 21 22 13 12 17 21 22 15 11 10 10 10 10 9 9 10 10 10 9 10 9 9 10 9 10 11 12 11 10 10
11 10 11 10 10 10 9 10 10 8 9 10 11 10 6 6 6 5 5 4 5 5 5 4 4 4 4 4 4 4 4 6 11 8 10 12 12 12 13 10 12 8 7 8 8 8 6 5 8 14 17 19 21 22 21 22 16 11 18 19 19 20 15 7 9 9 9 9 10 10 10 10 10 10 10 10 10 11 11 11 12 13 12 12 13
7 9 9 9 9 9 9 9 9 8 10 10 9 10 8 6 5 5 5 5 5 5 5 5 4 4 4 3 4 3 4 4 7 11 9 11 11 12 12 13 12 8 7 7 7 6 6 7 9 17 19 20 22 21 19 17 11 16 17 18 18 15 7 7 6 7 9 9 9 9 10 10 10 10 10 11 12 13 13 13 13 14 14 13 14
8 9 10 10 10 9 8 8 9 9 9 11 11 8 8 8 6 5 6 5 5 5 5 5 5 4 4 4 3 3 3 4 3 6 10 10 12 12 12 12 11 12 9 7 7 6 9 15 17 18 19 20 21 18 13 12 15 15 16 16 14 5 5 5 6 7 8 9 9 10 10 10 10 11 12 13 14 14 12 12 12 11 11 12 12
9 11 10 9 9 9 10 8 8 8 9 5 5 4 6 7 7 6 6 6 6 5 5 5 4 4 3 3 3 3 3 3 3 3 5 7 8 10 10 11 11 12 12 9 11 13 14 15 18 18 16 15 11 8 8 8 14 15 14 12 5 5 4 5 6 7 8 9 9 10 10 10 11 12 13 12 11 11 11 11 11 11 10 10 10
9 8 9 8 7 9 12 8 6 6 6 4 5 5 6 6 6 6 7 7 7 6 6 5 4 4 4 4 3 3 4 4 4 3 3 3 4 4 5 6 9 9 7 6 8 4 5 5 8 15 14 17 15 13 12 11 8 6 4 4 4 4 4 4 6 8 9 9 9 9 9 10 11 11 11 11 11 11 11 11 11 11 11 11 11
11 11 10 7 7 8 10 11 10 6 7 7 7 6 6 7 8 9 9 9 8 7 6 5 5 5 4 4 4 4 4 4 4 4 4 4 5 5 5 5 5 5 4 5 2 2 1 5 9 6 4 5 5 3 3 3 5 4 3 3 4 5 7 10 10 7 7 8 9 9 9 9 10 10 10 10 10 10 10 10 11 12 11 12 12
8 7 6 6 6 5 4 4 5 6 6 6 5 5 6 7 7 4 2 2 3 4 5 5 5 4 4 4 5 5 5 5 5 6 7 8 7 6 5 5 5 5 5 5 5 2 2 3 3 4 3 3 3 4 3 3 4 4 4 3 3 4 3 3 5 6 6 7 9 10 10 9 9 9 10 10 10 11 10 10 10 11 11 11 12
6 7 7 5 5 6 5 5 4 4 4 5 4 3 4 7 5 3 1 5 7 6 6 4 4 4 4 4 4 6 4 3 6 9 11 13 14 13 11 12 12 9 10 4 5 0 1 2 4 3 3 3 3 4 4 4 5 5 4 6 5 3 4 4 4 5 7 8 9 9 9 9 9 10 9 10 11 10 11 12 11 11 11 11 11
4 3 6 6 8 5 5 5 5 4 4 4 4 4 2 5 11 13 10 8 10 12 12 11 10 10 7 4 7 11 10 10 12 12 13 14 15 13 13 13 14 11 1 3 1 1 2 3 3 3 3 3 3 4 4 4 4 5 6 5 3 4 5 4 4 6 8 8 9 8 8 8 9 9 10 10 11 12 11 10 9 10 10 11 11
5 5 5 3 6 7 4 4 4 5 4 4 5 5 6 5 5 12 16 14 13 13 13 14 15 14 15 13 9 7 12 14 14 14 15 15 14 13 13 14 11 5 4 5 1 2 3 3 3 3 3 3 3 4 3 4 4 4 5 6 6 4 5 4 5 6 7 8 8 9 9 9 9 9 10 10 12 11 11 11 10 10 10 10 11
10 6 4 6 5 8 5 5 5 6 5 6 5 6 6 6 6 4 8 15 16 15 14 15 15 16 17 19 20 15 11 10 11 13 13 14 14 13 13 13 7 6 6 2 2 3 3 3 3 3 3 3 3 3 3 3 4 4 4 5 6 6 5 5 7 6 7 8 9 8 8 8 9 10 10 10 10 10 11 11 11 10 10 11 11
9 5 4 7 5 4 5 5 5 6 5 4 4 5 5 5 5 5 5 5 5 9 13 16 16 17 18 19 17 16 15 14 14 12 12 12 13 12 14 6 6 6 5 3 3 3 3 3 3 3 3 3 3 3 3 3 3 4 5 5 6 6 6 6 5 6 6 8 8 8 8 8 9 9 9 9 9 9 10 10 10 10 10 10 11
3 5 7 6 3 4 4 5 5 5 5 5 4 4 5 3 3 3 5 7 7 7 6 6 12 16 12 12 14 14 13 12 12 12 13 13 13 14 10 5 4 3 2 3 3 4 4 4 3 3 3 3 3 3 3 3 4 4 5 5 5 6 6 6 6 6 7 8 8 8 8 9 9 9 9 9 10 10 10 10 10 9 10 11 11
4 4 3 6 4 3 4 4 5 5 5 4 3 3 3 3 3 3 2 3 2 1 1 2 2 5 13 13 13 12 12 12 12 13 13 14 13 13 7 6 4 5 5 4 4 5 4 3 3 3 3 3 3 3 3 4 4 4 4 4 5 5 5 6 7 7 8 8 9 10 10 8 8 8 8 9 10 10 9 10 10 11 11 10 10
4 4 2 3 2 3 2 3 3 3 4 4 4 3 3 3 2 3 2 3 3 2 2 1 2 1 6 6 8 9 11 11 12 13 13 13 15 9 6 5 4 4 4 4 4 4 4 4 3 3 3 3 3 3 3 4 4 4 5 5 5 6 6 5 6 7 8 9 8 8 9 8 8 8 8 9 10 9 10 10 10 12 12 13 15
3 2 2 3 2 2 2 2 2 5 3 3 3 3 4 4 4 4 3 3 3 3 3 3 4 4 4 3 7 3 2 5 7 8 9 10 8 5 6 6 5 5 6 4 4 4 4 3 3 3 3 3 3 3 4 4 4 4 4 4 5 5 10 10 10 8 7 8 8 8 8 8 8 8 8 9 10 10 10 11 10 11 12 13 10
2 1 4 7 5 2 2 2 3 3 3 3 3 3 3 3 3 3 3 3 3 4 3 4 4 4 4 2 3 3 3 1 3 4 5 6 6 4 4 6 6 6 5 5 4 4 3 4 4 3 3 3 4 4 4 4 4 4 4 4 6 6 6 5 6 6 6 7 8 8 8 8 7 7 7 8 10 10 11 11 11 10 11 11 11
2 2 3 6 2 3 3 2 3 3 2 4 3 3 3 3 3 3 3 3 4 4 4 5 5 4 3 2 3 3 2 3 4 5 5 6 6 5 5 5 6 6 6 5 5 4 4 4 3 3 3 4 4 4 4 4 4 4 4 5 5 6 6 5 6 6 6 7 8 8 8 8 8 8 7 7 8 9 11 11 11 11 10 11 12
2 2 3 4 3 3 3 2 2 3 3 2 2 2 3 2 2 2 3 3 3 3 4 4 4 3 3 4 8 7 4 3 3 4 5 5 5 5 5 5 5 5 5 4 4 4 4 4 3 4 3 4 4 4 4 4 4 4 5 5 6 6 6 6 6 6 7 7 7 8 8 8 8 8 9 8 10 11 10 10 10 10 11 11 11
2 2 3 3 3 2 3 2 2 2 2 2 2 2 2 2 3 3 3 3 3 3 4 4 4 3 5 10 10 12 8 5 5 5 5 6 5 6 5 5 4 4 5 5 5 4 4 4 4 4 4 4 4 4 4 4 4 4 5 5 6 6 6 6 6 6 6 7 7 8 8 9 9 10 10 9 8 9 10 10 9 10 10 10 11
3 3 3 2 2 2 2 3 3 3 3 3 3 2 2 2 3 2 3 3 3 3 4 4 3 3 4 7 8 11 7 5 5 7 7 7 6 5 5 6 5 4 5 4 4 4 4 4 4 4 4 5 4 4 5 5 4 4 5 5 6 6 7 7 6 6 5 6 6 8 9 9 9 9 7 7 8 9 10 11 10 9 10 10 10
3 2 2 2 2 2 1 2 2 2 2 2 2 1 2 2 2 2 2 3 3 3 4 4 3 3 3 3 5 5 5 6 6 7 6 6 7 6 6 5 5 4 4 4 4 4 4 4 4 4 4 4 4 4 5 5 4 5 5 6 6 7 7 7 6 5 5 5 7 8 8 8 9 9 8 7 7 9 10 10 10 10 9 9 10
2 3 3 2 2 2 2 2 2 1 1 1 1 1 2 2 3 3 3 3 3 4 4 4 3 3 3 3 3 5 5 5 5 5 5 5 6 6 5 5 5 5 5 4 4 4 4 4 4 4 5 5 4 5 5 5 5 6 5 6 7 8 7 7 6 5 5 6 8 8 8 8 8 9 8 7 8 9 9 9 9 10 10 10 10
2 2 2 2 2 1 1 1 1 1 1 1 1 2 2 3 3 3 3 3 3 3 3 3 3 3 4 4 4 4 5 4 5 5 5 5 5 5 5 4 4 4 4 4 4 4 5 4 4 5 6 6 5 5 5 5 5 6 6 6 8 8 8 6 5 6 6 7 7 7 8 8 9 9 10 9 7 8 8 9 9 8 8 10 10
2 2 2 1 1 1 1 1 1 1 2 2 2 2 2 2 2 2 3 4 3 3 3 3 3 4 4 4 5 5 5 5 5 5 5 5 5 4 3 4 4 4 4 4 4 4 5 5 5 6 6 6 5 6 6 6 5 5 5 6 7 8 7 6 6 6 6 6 7 7 8 8 9 9 10 8 7 8 8 9 8 9 9 9 9
1 1 1 1 1 1 1 1 1 2 2 2 2 2 2 2 2 2 3 3 3 4 4 4 4 5 5 5 5 5 5 5 5 5 5 5 5 5 5 5 5 5 4 4 5 5 5 5 6 6 6 6 6 7 6 6 6 6 6 6 7 7 8 8 6 6 6 6 7 8 8 8 8 9 9 7 8 8 8 8 8 7 8 8 9
1 1 1 1 1 1 1 1 1 1 1 1 2 2 2 2 2 3 3 3 3 3 3 4 4 4 4 5 4 4 4 4 4 4 4 4 4 4 5 5 5 5 5 5 5 6 6 5 6 6 6 6 6 7 7 6 6 6 7 7 9 15 16 15 10 8 10 7 7 9 9 9 10 10 8 7 8 7 7 8 8 8 8 7 8
1 1 1 1 1 0 0 0 0 0 1 1 1 2 2 2 2 3 3 3 3 3 4 4 5 5 5 5 5 5 5 5 5 5 5 5 5 4 4 5 5 5 6 6 5 5 5 5 6 6 6 7 7 7 6 6 6 7 7 8 13 16 15 16 15 15 11 8 9 8 9 9 10 9 7 6 7 8 8 7 7 8 7 7 7
0 0 0 0 0 0 0 0 1 1 1 2 1 2 2 2 3 3 3 3 4 4 4 4 4 5 5 5 5 5 5 5 5 5 4 4 4 4 5 5 5 5 5 6 5 5 5 5 5 6 6 7 7 7 6 6 6 7 10 15 17 16 16 15 10 12 15 12 9 8 9 10 9 8 7 7 6 6 9 8 7 6 6 6 6
Wind_Direction
147 145 144 145 143 143 139 135 130 130 132 128 122 119 116 114 109 108 109 99 101 99 89 79 62 53 34 17 16 344 355 338 328 326 318 338 331 350 323 325 328 323 333 327 332 333 323 316 315 322 328 325 320 317 312 313 314 307 306 305 301 302 303 296 292 294 295 300 306 311 327 324 311 317 319 319 320 315 311 306 307 302 299 295 297
153 149 149 151 154 147 144 139 139 139 137 131 123 123 121 113 117 118 109 103 97 90 98 92 75 52 24 353 344 330 322 314 311 320 328 325 329 335 321 329 324 323 329 323 331 326 322 313 316 323 329 318 310 306 308 311 306 306 306 308 303 301 303 300 295 294 296 306 306 315 318 324 313 331 323 312 311 312 307 305 302 303 304 306 303
152 152 153 157 155 150 146 147 147 148 142 135 130 127 120 117 116 123 118 118 121 124 120 142 127 185 225 272 267 296 306 301 308 310 320 325 321 326 324 325 322 321 323 324 323 322 319 317 314 324 321 313 309 309 307 305 311 308 305 303 301 301 302 301 299 296 298 298 308 312 319 327 316 318 315 307 308 309 304 305 309 308 304 300 297
158 159 158 158 155 155 155 153 156 154 145 135 133 127 126 123 125 126 135 143 150 137 141 166 183 188 215 215 231 262 283 300 296 311 313 323 326 320 323 322 318 313 310 312 317 320 315 314 313 321 318 309 309 310 309 315 314 311 310 307 304 303 302 305 299 295 298 299 304 311 314 318 313 310 313 310 310 313 313 308 307 305 303 300 296
161 162 163 161 161 162 161 162 164 157 144 136 133 131 132 136 138 148 153 156 157 159 166 166 190 192 191 221 269 271 304 305 311 317 325 324 321 315 311 313 306 306 305 303 304 303 306 305 308 315 312 308 308 313 316 317 313 314 309 307 305 306 307 303 298 295 294 294 299 303 311 310 310 309 313 313 311 309 306 302 301 302 302 304 316
166 164 166 164 166 166 164 169 169 159 145 137 139 144 146 147 146 157 164 161 163 160 161 171 162 198 184 234 265 289 303 318 315 309 317 319 311 306 305 308 302 300 299 296 295 301 299 299 303 305 305 307 308 312 315 319 320 312 312 311 312 310 307 304 300 301 300 297 300 305 310 313 312 304 311 312 312 310 306 301 301 306 312 316 312
168 168 168 167 169 170 170 175 169 158 147 143 146 151 155 152 158 160 162 168 169 168 162 164 176 167 216 213 278 294 302 295 291 302 305 306 304 300 307 305 302 298 290 292 291 289 289 291 296 297 299 302 306 313 323 320 314 313 313 312 311 310 306 306 305 302 299 298 297 297 302 305 306 308 310 309 305 304 306 309 308 310 308 304 306
169 169 169 173 173 173 176 174 166 155 147 145 149 156 154 155 160 157 160 176 171 171 171 168 173 171 205 235 252 270 274 270 274 292 302 313 314 314 313 300 295 293 290 290 290 287 285 288 286 290 292 297 312 316 313 308 308 305 306 306 305 306 304 304 304 301 299 298 296 301 301 303 307 299 302 308 306 303 303 308 308 310 307 303 306
164 169 174 179 181 178 172 166 159 147 145 146 153 158 159 160 159 159 176 179 170 170 165 165 169 184 198 221 238 249 252 249 234 356 330 321 317 307 298 293 292 292 292 292 292 287 285 283 282 285 296 300 297 294 293 295 296 297 299 301 302 301 300 300 301 300 296 296 296 297 298 300 303 306 307 307 307 306 308 305 297 298 301 304 302
174 178 182 182 175 171 164 158 156 149 153 155 160 160 161 162 162 173 181 183 176 171 170 169 179 188 199 219 231 232 238 234 138 235 270 280 293 290 288 284 287 289 292 293 290 287 283 284 290 296 294 293 292 289 286 289 289 286 289 294 293 294 294 297 297 297 295 294 294 299 298 297 299 301 298 297 296 296 297 301 301 302 303 296 292
182 183 184 181 177 169 161 160 157 162 163 159 159 157 163 162 168 177 184 183 181 176 177 177 182 186 199 218 235 237 229 218 201 256 270 277 280 280 280 283 284 284 283 284 286 288 286 290 293 294 293 291 289 292 295 290 292 291 288 284 283 287 293 293 290 290 291 287 289 291 290 290 293 293 293 296 294 293 294 298 299 301 302 306 307
180 185 185 183 176 163 161 157 158 163 158 163 153 158 155 158 170 180 188 187 190 180 188 182 176 184 198 223 235 237 241 223 230 254 267 271 272 274 276 279 279 276 277 280 283 287 290 291 290 291 290 290 293 294 289 287 288 290 291 289 287 283 280 280 285 288 284 285 284 279 283 286 287 288 289 290 291 291 291 293 293 294 296 293 290
186 188 188 183 168 159 160 157 157 156 162 153 151 147 150 161 177 185 196 192 182 185 191 175 182 186 200 222 234 242 241 233 232 252 263 268 274 276 272 272 273 272 273 276 280 282 283 289 290 287 286 289 289 285 288 291 293 296 295 292 285 277 271 271 279 279 279 278 277 280 277 281 281 280 280 283 286 287 289 286 288 286 283 280 287
189 187 183 186 166 158 157 159 159 158 149 150 150 155 161 179 181 188 188 186 190 189 183 181 184 191 202 218 234 243 247 234 238 254 262 270 274 273 270 270 271 271 270 273 277 278 280 281 286 288 288 291 290 289 293 296 297 294 287 278 275 271 269 268 272 275 275 274 275 272 271 270 274 278 277 279 281 281 284 282 283 282 280 278 282
191 193 190 176 160 166 165 152 160 149 147 153 158 167 170 174 179 188 186 191 189 187 183 186 192 192 201 218 236 247 247 238 243 255 263 272 273 277 272 269 266 265 267 270 272 274 276 277 280 281 285 288 286 290 296 293 287 281 275 269 258 263 265 259 259 260 255 251 256 263 273 273 273 273 276 279 275 277 278 280 279 277 279 282 278
194 191 184 168 156 161 155 165 162 153 156 161 167 174 171 179 178 188 187 191 185 180 185 179 187 192 204 209 229 247 249 240 242 252 264 271 279 279 269 262 261 262 265 261 266 268 272 275 275 281 285 285 289 293 295 297 292 283 278 275 269 254 250 247 252 253 255 258 260 263 262 266 269 271 275 272 270 270 270 268 267 272 272 265 271
198 196 185 165 180 175 163 170 166 159 157 163 175 176 168 174 180 183 181 188 181 186 186 188 193 192 201 208 220 246 255 252 249 254 261 270 280 272 263 259 256 256 261 260 263 264 268 269 273 280 286 287 289 294 297 299 292 291 294 295 288 279 273 265 267 271 274 273 274 279 281 286 291 291 291 293 296 297 296 292 289 290 286 289 288
200 195 185 192 165 180 183 185 182 178 168 179 170 173 158 164 180 179 180 185 183 181 178 183 200 203 204 209 216 230 254 257 255 258 259 263 259 257 259 258 261 259 265 265 263 263 266 270 276 280 285 288 291 295 300 308 308 305 297 292 295 297 300 302 302 299 300 300 297 294 292 293 294 297 298 300 298 295 286 283 288 289 282 281 289
203 197 193 186 181 183 183 186 187 184 188 180 170 177 170 171 167 168 184 180 173 164 179 189 201 210 211 214 223 229 248 262 262 261 258 255 253 252 252 258 261 259 264 265 266 269 272 278 282 281 282 288 299 310 313 311 303 301 305 306 303 302 303 309 308 305 300 297 300 309 307 303 300 293 288 287 285 286 280 280 285 279 280 281 283
203 200 194 185 184 187 188 188 191 190 193 179 171 168 139 151 162 170 175 171 170 175 176 194 195 221 210 205 218 228 235 246 249 252 248 248 246 242 249 252 258 264 265 270 278 279 279 281 282 285 292 304 311 311 310 311 312 310 308 303 303 303 308 302 302 305 313 317 305 300 293 289 283 279 278 278 279 276 280 280 281 282 281 280 278
197 183 182 184 189 193 193 190 192 194 187 176 144 155 159 164 153 160 163 176 167 176 173 192 198 225 227 222 215 221 218 229 245 247 247 245 245 243 245 248 256 263 269 277 282 286 289 283 286 299 309 311 309 310 313 314 313 312 309 303 300 301 308 312 317 317 307 301 297 296 294 294 294 292 288 286 285 286 284 283 281 283 285 285 285
197 191 192 195 195 193 193 195 188 180 167 158 163 168 156 149 153 152 167 169 160 165 169 199 212 221 226 218 220 223 224 224 230 246 244 243 244 242 239 244 248 261 273 276 283 285 283 291 303 311 308 307 309 314 315 315 316 316 306 305 309 313 315 315 310 307 302 302 302 299 298 296 296 295 293 293 295 296 295 292 290 289 286 283 283
196 196 197 195 192 190 187 181 180 167 171 173 169 165 139 146 150 154 169 150 155 172 188 201 206 220 224 232 221 216 218 225 228 231 242 244 244 243 243 246 256 263 272 279 279 281 289 299 309 306 303 310 314 314 315 317 318 308 311 316 317 320 322 313 309 308 306 307 306 302 300 301 303 303 301 300 297 296 295 294 294 290 285 282 279
193 195 194 194 185 185 182 178 176 175 171 165 163 159 163 156 150 167 168 167 174 185 200 191 202 209 213 225 221 215 214 216 227 226 232 242 245 244 246 250 257 260 262 266 273 281 298 305 299 303 312 313 312 314 316 316 309 310 315 318 321 323 316 312 312 312 310 307 306 305 305 304 305 302 304 306 304 303 299 297 293 290 285 284 281
183 190 193 191 189 183 170 175 177 175 171 159 159 166 154 161 169 177 166 187 193 192 199 186 193 201 204 208 210 211 205 212 218 232 234 240 245 247 249 252 257 263 268 271 275 282 286 293 304 311 311 311 313 316 315 309 306 309 314 319 324 314 312 312 313 314 310 309 307 304 301 301 301 300 303 304 302 298 293 288 285 282 277 272 267
188 198 196 194 188 166 169 169 165 168 170 178 179 172 158 166 174 172 172 191 193 191 197 185 190 192 201 205 206 209 208 205 217 222 237 248 249 246 246 252 263 269 266 265 269 282 291 300 304 308 309 309 311 306 301 300 301 308 312 318 314 311 311 311 310 311 307 306 304 302 303 307 306 308 306 303 301 301 304 301 301 296 292 287 283
197 200 200 193 171 170 175 164 165 157 171 175 187 183 172 176 182 179 178 188 187 190 193 187 185 191 196 199 200 199 204 206 211 216 215 233 232 238 246 258 265 267 267 265 275 285 294 296 296 299 303 302 300 296 294 298 299 296 299 310 308 300 306 303 302 306 303 301 302 303 306 305 305 306 307 307 303 302 303 300 299 304 309 307 302
199 203 198 181 167 171 175 180 170 167 179 183 183 189 188 184 189 193 184 185 176 185 180 185 190 186 189 185 190 198 205 205 205 205 214 217 228 228 242 247 261 266 250 249 199 150 258 291 297 292 283 285 290 284 279 281 285 291 296 295 290 296 304 308 308 299 298 301 302 304 302 305 305 306 306 305 304 303 310 312 312 308 307 307 301
208 202 179 169 173 160 183 176 185 177 176 186 208 198 187 183 197 207 203 177 192 176 169 187 188 187 184 191 181 198 198 202 203 207 218 222 219 224 238 255 258 272 225 206 128 192 212 274 281 288 277 283 292 291 291 292 292 292 280 272 294 304 302 300 306 304 307 312 311 309 306 304 303 304 305 305 308 311 312 309 308 306 306 301 297
196 203 180 168 161 153 180 183 182 190 166 188 190 224 225 217 225 209 186 205 223 226 199 189 172 166 184 207 198 198 194 183 204 222 234 236 240 246 257 261 263 263 262 268 115 78 287 275 274 277 284 281 289 292 295 301 301 307 302 309 309 299 304 306 301 304 312 311 308 306 303 304 305 309 312 310 307 306 309 311 307 308 306 304 302
196 197 180 194 188 164 167 178 174 185 175 168 177 192 214 233 228 229 231 215 217 225 225 219 202 192 186 196 216 220 222 229 236 242 243 245 247 250 260 265 266 269 172 94 6 294 280 267 268 268 268 276 277 283 291 296 300 301 304 305 296 298 303 301 301 314 314 307 304 298 300 304 308 313 312 311 311 311 311 307 306 306 304 305 303
203 197 186 163 171 173 178 174 154 176 186 167 177 181 199 210 220 221 222 227 224 223 223 222 220 219 219 216 205 220 234 242 246 245 247 247 250 256 259 261 264 170 207 121 145 249 246 251 257 255 261 273 269 275 281 289 292 293 297 303 303 297 298 302 314 316 304 300 301 305 306 309 308 309 309 311 312 310 310 311 311 309 306 302 299
223 218 160 164 176 185 183 176 184 182 182 180 180 183 191 197 196 184 205 216 222 225 227 226 225 225 229 233 231 228 221 223 233 245 244 244 243 246 251 262 190 159 149 179 201 233 242 235 237 243 247 256 268 273 275 277 282 287 287 290 297 300 297 299 307 293 294 298 303 302 305 306 308 309 309 309 310 307 309 307 308 305 304 304 304
221 223 190 181 172 173 183 184 182 189 187 183 184 181 197 194 195 182 163 176 214 234 238 237 234 234 237 237 236 238 240 242 243 240 238 238 246 246 257 221 175 169 192 214 208 229 229 234 230 232 237 249 255 265 269 272 279 279 281 281 284 293 297 303 301 302 300 299 298 301 304 305 307 308 307 308 306 305 303 303 304 305 306 305 304
214 228 218 181 170 175 175 187 180 182 179 184 176 177 191 187 184 189 194 188 196 201 206 224 230 230 233 235 235 232 233 233 236 240 244 246 244 249 240 175 209 197 205 176 209 218 226 223 227 228 228 240 248 253 263 265 268 273 278 285 289 292 298 302 302 301 299 300 303 303 302 304 307 305 308 308 308 307 306 306 304 303 301 301 302
204 213 197 189 185 180 177 180 181 181 182 178 162 171 164 163 184 196 205 229 221 193 162 173 159 227 230 228 227 230 233 235 238 242 244 245 242 242 207 209 198 217 210 209 195 220 211 220 217 231 225 240 241 248 252 261 260 268 277 283 286 289 293 297 298 300 299 299 299 302 304 302 302 303 305 304 303 304 304 303 303 304 303 301 301
191 207 192 174 171 184 167 161 165 172 160 124 133 151 162 174 187 190 197 199 205 220 218 183 143 238 243 247 246 241 238 242 245 246 246 240 243 236 199 211 216 220 218 214 212 202 215 215 214 217 229 230 242 241 249 254 262 265 272 273 274 281 279 278 285 293 297 296 295 294 296 299 303 304 307 306 307 305 305 306 305 306 308 307 309
194 203 196 126 141 134 115 123 123 125 117 135 149 155 168 175 178 186 189 196 196 197 210 215 217 228 218 219 174 171 232 246 243 246 246 245 240 192 213 219 220 222 230 226 216 209 213 217 209 215 223 228 235 245 247 257 256 265 266 270 274 272 284 288 292 290 286 289 293 297 300 299 299 302 306 306 308 308 307 308 308 308 308 309 308
194 96 112 139 157 158 155 130 130 145 151 148 163 163 171 164 173 188 199 202 201 211 212 214 217 220 222 185 135 145 140 211 208 224 217 226 220 207 201 210 212 222 219 220 214 211 213 217 217 209 216 221 233 236 244 251 256 256 268 275 275 274 277 277 281 286 290 290 294 296 297 296 300 301 302 303 304 307 307 307 309 308 308 310 310
152 154 149 147 150 144 128 135 136 150 168 157 166 161 164 174 188 193 201 206 218 213 216 220 220 219 212 162 151 166 183 209 218 215 214 215 216 208 195 205 210 211 212 212 207 208 211 215 210 213 219 220 229 236 237 247 248 258 259 263 266 269 270 276 278 282 285 289 291 294 295 298 300 301 297 298 303 309 310 308 307 309 307 308 307
146 142 141 168 153 138 117 131 149 160 160 162 161 157 186 183 194 203 215 222 227 226 229 228 231 224 214 213 219 208 192 213 223 228 225 221 220 210 204 207 208 214 211 210 212 210 209 208 208 210 216 220 223 234 237 237 244 252 256 260 263 267 272 270 274 275 280 286 289 290 292 298 301 301 299 301 310 312 307 305 305 305 306 306 307
127 123 136 171 161 138 131 144 146 131 133 146 170 176 180 187 199 212 221 229 232 237 243 247 237 224 238 242 243 238 234 219 219 229 236 230 224 221 212 212 212 212 214 216 209 208 206 205 207 208 216 224 223 231 232 240 241 245 252 255 257 263 268 270 272 275 280 281 286 290 293 296 298 296 297 304 307 307 309 307 305 302 300 304 308
95 104 108 114 139 157 136 141 144 153 172 172 197 189 196 200 206 215 228 232 239 239 244 247 249 240 241 255 256 255 252 243 219 222 227 230 225 220 221 226 220 218 219 222 219 206 203 205 209 213 215 220 219 221 228 237 235 247 253 257 260 259 263 267 270 272 275 282 287 293 294 296 295 294 292 298 304 305 305 306 305 304 304 305 305
105 101 107 119 122 106 117 129 141 157 169 147 142 171 179 197 219 228 234 241 233 239 243 252 253 254 252 258 257 248 242 243 241 236 226 227 231 230 227 222 224 222 217 210 211 204 203 208 218 225 224 230 225 225 231 237 239 241 244 252 258 258 256 258 262 267 279 286 289 288 290 291 293 293 292 297 303 306 306 305 305 305 305 304 306
105 110 124 123 130 136 136 119 121 130 116 119 188 208 197 210 233 233 229 232 240 235 243 244 246 245 246 238 225 226 232 233 236 238 239 230 231 233 232 232 226 221 218 216 208 200 203 211 219 228 237 234 229 231 231 230 228 232 234 241 247 254 254 256 262 276 283 284 282 282 284 288 290 291 292 295 299 303 302 303 302 306 306 305 307
103 103 113 117 121 130 126 133 131 147 163 195 203 216 213 215 220 227 233 239 241 247 250 248 245 243 244 242 240 236 235 230 235 236 240 242 241 240 232 226 223 217 215 217 212 207 211 209 215 225 233 237 237 234 237 232 232 233 236 238 245 252 256 261 266 271 268 268 276 283 286 283 282 286 293 292 294 299 297 296 295 294 294 300 301
81 102 102 116 122 119 134 138 152 174 177 205 213 220 237 238 234 235 235 235 244 252 254 253 251 248 243 240 237 242 238 235 234 236 232 230 231 228 227 221 216 218 220 217 217 218 216 219 223 226 234 239 243 246 248 246 245 243 241 240 240 247 247 249 249 254 263 274 278 279 276 274 280 282 285 286 294 296 296 293 292 293 296 300 300
97 93 105 103 112 135 148 164 169 174 202 207 212 222 226 236 243 242 249 243 235 235 243 249 251 252 250 250 247 244 242 243 242 237 238 233 227 222 222 223 223 224 223 224 222 221 220 221 218 223 230 235 236 242 244 245 246 245 246 246 246 245 249 249 251 257 262 266 263 264 268 272 275 277 281 289 296 294 293 292 293 293 296 300 302
89 110 115 131 140 151 165 181 188 210 209 220 214 219 225 226 237 240 243 244 246 245 242 246 250 250 251 250 248 252 248 246 242 243 238 236 231 227 217 215 219 219 218 224 223 222 224 224 221 224 227 233 234 236 240 241 247 247 248 246 251 254 257 258 257 254 259 262 266 265 264 262 265 269 277 286 287 288 286 285 285 289 295 296 297
100 107 112 128 140 191 146 212 261 245 257 243 247 257 255 249 249 248 250 250 253 248 249 248 247 247 247 250 245 245 244 241 241 239 237 237 236 226 220 217 217 218 221 228 228 227 225 226 226 229 230 232 233 235 236 239 244 247 248 247 252 255 257 259 261 261 260 252 254 261 266 273 275 276 277 281 285 284 283 280 283 292 295 295 295
73 81 70 101 101 282 233 248 239 244 235 244 246 244 246 247 250 247 247 244 247 254 254 249 248 249 249 249 249 247 244 244 244 246 246 241 236 232 231 228 229 228 230 231 234 230 228 229 232 233 231 231 231 232 233 234 240 243 249 252 254 255 259 261 261 262 260 259 261 264 268 270 272 275 280 280 282 280 281 284 286 290 295 293 293